Flag for Belgium Weather past 2 weeks in Ghent, Belgium

Now
42 °F

Duststorm.


Feels Like: N/A
Forecast: 47 / 58 °F
Wind: N/A

Location: Munte

Current Time: May 24, 2015 at 5:46:15 AM

Latest Report: May 24, 2015 at 4:00 AM


Visibility: 1 mi

Pressure: 30.18 "Hg

Humidity: 97%

Dew point: 41 °F

Location of GhentLocation

Historic Weather in Ghent — Graph

°F

Ghent temperature yesterday

Maximum temperature yesterday: 61 °F (at 7:00 PM)
Minimum temperature yesterday: 52 °F (at 10:00 PM)
Average temperature yesterday: 57 °F

Past Weeks' High & Low Weather Summary

 TemperatureHumidityPressure
High75 °F (May 11, 4:00 PM)99% (May 10, 7:00 AM)30.37 "Hg (May 10, 7:00 AM)
Low42 °F (May 24, 4:00 AM)42% (May 12, 3:00 PM)29.68 "Hg (May 18, 9:00 PM)
Average55 °F74%30.11 "Hg
* Reported May 9 4:00 AM — May 24 4:00 AM, Ghent, Weather by CustomWeather, © 2015

Note: Actual official high and low records may vary slightly from our data, if they occured in-between our weather recording intervals... More about our weather records

Advertising

Ghent weather history for previous 24 hours

 ConditionsComfort  
Time TempWeatherWind HumidityBarometerVisibility
4:00 AM
Sun, May 24
42 °FDuststorm.N/A97%30.18 "Hg1 mi
3:00 AM44 °FFog.N/A95%30.19 "Hg3 mi
2:00 AM46 °FCool.N/A93%30.20 "Hg5 mi
1:00 AM47 °FCool.N/A89%30.21 "Hg7 mi
12:00 AM48 °FCool.N/A86%30.22 "Hg8 mi
10:00 PM
Sat, May 23
52 °FCool.5 mph75%30.22 "Hg10 mi
9:00 PM55 °FCool.5 mph64%30.20 "Hg12 mi
8:00 PM58 °FCool.5 mph66%30.19 "Hg12 mi
7:00 PM61 °FCool.5 mph68%30.19 "Hg9 mi
6:00 PM60 °FCool.5 mph70%30.19 "Hg10 mi
5:00 PM60 °FCool.5 mph74%30.19 "Hg9 mi
4:00 PM59 °FFog.3 mph82%30.20 "Hg3 mi
3:00 PM60 °FCool.5 mph84%30.19 "Hg5 mi
2:00 PM60 °FCool.5 mph85%30.20 "Hg4 mi
1:00 PM60 °FCool.3 mph86%30.21 "Hg4 mi
12:00 PM60 °FCool.2 mph86%30.22 "Hg4 mi
11:00 AM58 °FCool.2 mph86%30.22 "Hg3 mi
10:00 AM57 °FFog.N/A90%30.22 "Hg2 mi
9:00 AM55 °FFog.N/A91%30.22 "Hg2 mi
8:00 AM55 °FCool.2 mph91%30.21 "Hg3 mi
7:00 AM54 °FCool.N/A91%30.20 "Hg4 mi
6:00 AM53 °FCool.N/A92%30.19 "Hg6 mi
5:00 AM54 °FCool.N/A85%30.20 "Hg8 mi
Weather by CustomWeather, © 2015

See weather overviewHow to use our weather pages